Location: Centerville
(32.8776°N, 96.6203°W)
Time: 13:34:12
(UTC+00:00)

ARIANE 5 R/B - Pass Details

Date: 17 June 2021
Orbit: 620 x 656 km, 98.1° (Epoch: 28 July)

Event Time Altitude Azimuth Distance (km) Brightness Sun altitude
Exits shadow 04:13:50 68° 260° (W) 689 2.7 -25.3°
Drops below altitude 10° 04:18:15 10° 342° (NNW) 2,045 6.2 -25.9°
Sets 04:20:30 0° 345° (NNW) 2,964 7.2 -26.1°
